STARLINK-31951, 59890

Orbit data source: Space-Track

STARLINK-31951, 59890 is a payload satellite owned by SpaceX/Seattle (US) in LEO that was launched on Tue, 28 May 2024 UTC via an FALCON 9 launch vehicle from the Air Force Eastern Test Range (AFETR). Payload-class satellites include a variety of spacecraft equipped with specific instruments for various scientific and technological missions. These include communications satellites like Starlink; space stations such as the ISS; scientific satellites like the Hubble; Earth observation satellites from companies like Planet Labs, Umbra, and HawkEye 360; GPS; miniature CubeSats for education and research; and military/defense satellites.

Loading next visibility...
Identifier
59890, 2024-100F
Orbit
LEO
Country
Flag of USUS
Related business
Manufacturer
SpaceX/Seattle
Mission
Operational Commercial Communications
Bus & Motor
STARLINK V2M, Unknown motor
Mass
730 kg wet, ~700 kg dry
Launch date (UTC)
2024-05-28 (2 years ago)
Launch vehicle
FALCON 9
Launch site
Air Force Eastern Test Range (AFETR)
Object type
Payload
Rocket body
Debris
Shape & HBR
Box + 2 Pan, 17.7 m
Radar Cross Section
33.884 m², Large (>1 m²)

Expand to show TLE details & history
Last TLE update: 2 days ago

TLE from 2 days ago
0 STARLINK-31951
1 59890U 24100F   26171.24426218  .00000605  00000-0  31544-4 0  9996
2 59890  43.0012 266.0142 0002229 238.6700 121.3933 15.27570340116740
Epoch: 2026-06-20T05:51Z
TLE epoch observation values (Epoch: 2026-06-20T05:51:44.252Z)
Latitude
-0.00005°
Longitude
-90.38191°
Altitude
483.65 km
Speed
7.625 km/s
True Right ascension
17h 44m 03s
True Declination
0° 00' 00"
Sunlit
Object was in full shadow at epoch
Visualization orbit readout
Latitude
Unknown
Longitude
Unknown
Altitude
Unknown
Speed
Unknown
Apparent Right ascension
Unknown
Apparent Declination
Unknown
Sunlit
N/A
Visualization observer readout
Local Sidereal Time
21:41:32
Azimuth
Unknown
Elevation
Unknown
Doppler factor
Unknown
Orbital elements
Apogee altitude
486.553 km
Perigee altitude
483.493 km
Semi-major axis
6,863.16 km
Eccentricity
0.00022
Inclination
43.0012°
RAAN
266.0142°
Arg. of periapsis
238.67°
True anomaly
121.4151°
Mean anomaly
121.3933°
Eccentric anomaly
121.4042°
Mean motion
3.81731 °/min
Orbital period
94.31 mins
BSTAR
0.000031544
Loading maneuver chart data...
Computing Atmospheric mass density...
Loading historical data...
Loading historical data...
Loading historical data...
Loading historical data...
Loading historical data...
Loading historical data...
Loading historical data...

Documentation

Showing up to 5 results
|